Weather History for Pittsfield, IL

Change the Weather History Date:

Tuesday, September 24, 2013

  Actual Average (KUIN) Record (KUIN)
Temperature  
Mean Temperature 64 °F 63 °F  
Max Temperature 79 °F 74 °F 94 °F (1935)
Min Temperature 50 °F 52 °F 33 °F (1989)
Degree Days  
Heating Degree Days 0 5  
Month to date heating degree days 49  
Since 1 July heating degree days 54  
Cooling Degree Days 0 2  
Month to date cooling degree days 111  
Year to date cooling degree days 1064  
Growing Degree Days 14 (Base 50)    
Moisture  
Dew Point 55 °F    
Average Humidity 72    
Maximum Humidity 92    
Minimum Humidity 49    
Precipitation  
Precipitation 0.00 in 0.12 in 4.35 in (1904)
Month to date precipitation 2.65  
Year to date precipitation 28.40  
Sea Level Pressure  
Sea Level Pressure 29.90 in    
Wind  
Wind Speed 4 mph (East)    
Max Wind Speed 14 mph    
Max Gust Speed 21 mph    
Visibility 10 miles    
Events Rain , Thunderstorm    
T = Trace of Precipitation, MM = Missing Value Source: NWS Daily Summary

Daily Weather History Graph

Daily Weather History Graph

Search for Another Location

Airport:

Trip Planner

Search our weather history database for the weather conditions in past years. The results will help you decide how hot, cold, wet, or windy it might be!

Date:

Astronomy

Sep. 24, 2013 Rise Set
Actual Time 6:52 AM CDT 6:56 PM CDT
Civil Twilight 6:26 AM CDT 7:23 PM CDT
Nautical Twilight 5:54 AM CDT 7:54 PM CDT
Astronomical Twilight 5:22 AM CDT 8:26 PM CDT
Moon 10:15 PM CDT (9/24) 12:06 PM CDT (9/24)
Length of Visible Light 12h 57m
Length of Day
12h 03m
Waning Gibbous, 73% of the Moon is Illuminated
Sep 24
Waning Gibbous
Sep 26
Last Quarter
Oct 4
New
Oct 11
First Quarter
Oct 18
Full

Hourly Weather History & Observations

Time (CDT) Temp. Dew Point Humidity Pressure Visibility Wind Dir Wind Speed Gust Speed Precip Events Conditions
12:15 AM 54.9 °F 48.6 °F 79% 29.98 in 10.0 mi ESE 4.6 mph - N/A   Clear
12:35 AM 54.5 °F 48.6 °F 80% 29.97 in 10.0 mi Calm Calm - N/A   Clear
12:55 AM 52.9 °F 48.2 °F 84% 29.96 in 10.0 mi Calm Calm - N/A   Clear
1:15 AM 52.3 °F 48.9 °F 88% 29.96 in 10.0 mi Calm Calm - N/A   Clear
1:35 AM 52.3 °F 48.6 °F 87% 29.97 in 10.0 mi Calm Calm - N/A   Clear
1:55 AM 51.8 °F 48.2 °F 88% 29.97 in 10.0 mi Calm Calm - N/A   Clear
2:35 AM 52.2 °F 48.6 °F 88% 29.97 in 10.0 mi Calm Calm - N/A   Clear
2:55 AM 52.0 °F 48.6 °F 88% 29.96 in 10.0 mi Calm Calm - N/A   Clear
3:15 AM 51.4 °F 48.0 °F 88% 29.96 in 10.0 mi Calm Calm - N/A   Clear
3:35 AM 51.8 °F 48.4 °F 88% 29.96 in 10.0 mi East 3.5 mph - N/A   Clear
3:55 AM 52.2 °F 48.7 °F 88% 29.96 in 10.0 mi East 3.5 mph - N/A   Clear
4:15 AM 51.8 °F 48.6 °F 89% 29.96 in 10.0 mi Calm Calm - N/A   Clear
4:35 AM 52.3 °F 49.1 °F 89% 29.95 in 10.0 mi East 4.6 mph - N/A   Clear
4:55 AM 52.2 °F 49.1 °F 89% 29.95 in 10.0 mi East 4.6 mph - N/A   Clear
5:15 AM 52.0 °F 49.1 °F 90% 29.95 in 10.0 mi East 3.5 mph - N/A   Clear
5:35 AM 51.6 °F 48.9 °F 90% 29.95 in 10.0 mi Calm Calm - N/A   Clear
5:55 AM 50.5 °F 48.4 °F 92% 29.95 in 10.0 mi Calm Calm - N/A   Clear
6:15 AM 50.9 °F 48.7 °F 92% 29.95 in 10.0 mi Calm Calm - N/A   Clear
6:35 AM 51.1 °F 48.9 °F 92% 29.95 in 10.0 mi Calm Calm - N/A   Scattered Clouds
6:55 AM 51.1 °F 48.9 °F 92% 29.95 in 7.0 mi Calm Calm - N/A   Scattered Clouds
7:15 AM 51.3 °F 48.7 °F 91% 29.95 in 7.0 mi Calm Calm - N/A   Clear
7:35 AM 52.5 °F 49.8 °F 91% 29.95 in 10.0 mi Calm Calm - N/A   Clear
7:55 AM 54.7 °F 51.8 °F 90% 29.94 in 10.0 mi Calm Calm - N/A   Clear
8:15 AM 56.5 °F 52.3 °F 86% 29.94 in 10.0 mi ESE 3.5 mph - N/A   Clear
8:35 AM 58.3 °F 53.4 °F 84% 29.94 in 10.0 mi ESE 4.6 mph - N/A   Scattered Clouds
8:55 AM 60.1 °F 54.0 °F 80% 29.94 in 10.0 mi ESE 5.8 mph - N/A   Scattered Clouds
9:15 AM 61.9 °F 54.7 °F 77% 29.93 in 10.0 mi ESE 4.6 mph - N/A   Scattered Clouds
9:35 AM 63.9 °F 54.9 °F 72% 29.94 in 10.0 mi ESE 6.9 mph - N/A   Scattered Clouds
9:55 AM 63.5 °F 54.9 °F 73% 29.93 in 10.0 mi SE 5.8 mph - N/A   Scattered Clouds
10:15 AM 66.7 °F 56.7 °F 70% 29.92 in 10.0 mi ESE 4.6 mph - N/A   Scattered Clouds
10:35 AM 69.3 °F 57.4 °F 66% 29.92 in 10.0 mi ESE 6.9 mph - N/A   Clear
10:55 AM 70.2 °F 57.4 °F 64% 29.92 in 10.0 mi East 4.6 mph - N/A   Scattered Clouds
11:15 AM 70.3 °F 57.9 °F 65% 29.92 in 10.0 mi East 6.9 mph - N/A   Overcast
11:35 AM 70.7 °F 57.4 °F 63% 29.92 in 10.0 mi ESE 5.8 mph - N/A   Overcast
11:55 AM 72.0 °F 57.6 °F 60% 29.91 in 10.0 mi ESE 8.1 mph - N/A   Mostly Cloudy
12:15 PM 71.8 °F 58.1 °F 62% 29.91 in 10.0 mi ESE 8.1 mph - N/A   Scattered Clouds
12:55 PM 75.4 °F 59.5 °F 58% 29.89 in 10.0 mi ESE 5.8 mph - N/A   Clear
1:15 PM 77.0 °F 59.4 °F 54% 29.88 in 10.0 mi ESE 10.4 mph - N/A   Mostly Cloudy
1:35 PM 78.1 °F 59.2 °F 52% 29.88 in 10.0 mi SE 10.4 mph 17.3 mph N/A   Overcast
1:55 PM 77.5 °F 59.4 °F 53% 29.87 in 10.0 mi ESE 6.9 mph - N/A   Mostly Cloudy
2:15 PM 76.6 °F 59.7 °F 56% 29.87 in 10.0 mi ESE 6.9 mph - N/A   Mostly Cloudy
2:35 PM 77.0 °F 58.6 °F 53% 29.86 in 10.0 mi ESE 8.1 mph 18.4 mph N/A   Overcast
2:55 PM 78.3 °F 58.6 °F 51% 29.85 in 10.0 mi ESE 13.8 mph 17.3 mph N/A   Scattered Clouds
3:15 PM 79.3 °F 58.6 °F 49% 29.85 in 10.0 mi ESE 11.5 mph 17.3 mph N/A   Scattered Clouds
3:35 PM 79.0 °F 59.0 °F 50% 29.85 in 10.0 mi East 11.5 mph 20.7 mph N/A   Mostly Cloudy
3:55 PM 77.4 °F 58.8 °F 53% 29.84 in 10.0 mi ESE 10.4 mph 16.1 mph N/A   Scattered Clouds
4:15 PM 77.7 °F 59.5 °F 53% 29.85 in 10.0 mi ESE 4.6 mph - N/A   Mostly Cloudy
4:35 PM 79.2 °F 59.7 °F 51% 29.85 in 10.0 mi East 6.9 mph - N/A   Overcast
4:55 PM 78.1 °F 59.4 °F 52% 29.84 in 10.0 mi East 8.1 mph - N/A   Scattered Clouds
5:15 PM 77.0 °F 58.8 °F 53% 29.84 in 10.0 mi East 5.8 mph - N/A   Clear
5:35 PM 77.2 °F 59.9 °F 55% 29.84 in 10.0 mi East 5.8 mph - N/A   Scattered Clouds
5:55 PM 76.6 °F 59.5 °F 55% 29.84 in 10.0 mi East 5.8 mph - N/A   Scattered Clouds
6:15 PM 75.2 °F 59.9 °F 59% 29.84 in 10.0 mi ENE 5.8 mph - N/A   Scattered Clouds
6:35 PM 73.2 °F 60.8 °F 65% 29.83 in 10.0 mi NE 5.8 mph - N/A   Overcast
6:55 PM 72.7 °F 60.4 °F 65% 29.83 in 10.0 mi NE 5.8 mph - N/A   Overcast
7:15 PM 72.3 °F 60.4 °F 66% 29.83 in 10.0 mi ENE 5.8 mph - N/A   Overcast
7:35 PM 71.8 °F 60.1 °F 67% 29.83 in 10.0 mi NE 5.8 mph - N/A   Mostly Cloudy
7:55 PM 71.2 °F 59.9 °F 67% 29.83 in 10.0 mi ENE 8.1 mph - N/A   Mostly Cloudy
8:15 PM 71.1 °F 59.2 °F 66% 29.83 in 10.0 mi ENE 6.9 mph - N/A   Scattered Clouds
8:35 PM 70.3 °F 59.0 °F 67% 29.83 in 10.0 mi ENE 6.9 mph - N/A   Scattered Clouds
8:55 PM 69.8 °F 59.0 °F 68% 29.84 in 10.0 mi ENE 5.8 mph - N/A   Scattered Clouds
9:15 PM 69.1 °F 58.8 °F 70% 29.84 in 10.0 mi East 8.1 mph - N/A   Mostly Cloudy
9:35 PM 69.1 °F 58.6 °F 69% 29.84 in 10.0 mi East 8.1 mph - N/A   Scattered Clouds
9:55 PM 68.4 °F 59.0 °F 72% 29.85 in 10.0 mi East 6.9 mph - N/A Rain Light Rain
10:15 PM 69.1 °F 58.6 °F 69% 29.85 in 10.0 mi East 9.2 mph - N/A   Overcast
10:35 PM 68.9 °F 58.5 °F 69% 29.84 in 10.0 mi East 6.9 mph 16.1 mph N/A   Scattered Clouds
10:55 PM 68.0 °F 58.6 °F 72% 29.84 in 10.0 mi ESE 8.1 mph - N/A   Clear
11:15 PM 68.0 °F 59.0 °F 73% 29.85 in 10.0 mi ESE 3.5 mph - N/A Thunderstorm Mostly Cloudy
11:35 PM 67.3 °F 59.0 °F 75% 29.85 in 10.0 mi Calm Calm - N/A   Overcast
11:55 PM 66.7 °F 59.2 °F 77% 29.86 in 10.0 mi WSW 3.5 mph - N/A   Mostly Cloudy